Voltar ao catálogo

HIMAWARI 1

GMS 1

AtivoMeteoGEO
NORAD 10143·PAYLOAD·🇯🇵 Japan

Lançado Jul 14, 1977 de Cape Canaveral Space Force Station

Loading…

TLE

AtualizadoSource: Space-Track

Época: Sep 14, 2026, 11:56 UTC

1 10143U 77065A   26257.49725303 -.00000317  00000-0  00000-0 0  9991
2 10143   6.3084 291.7606 0017767 252.5133 132.2780  0.99253215122118

Acompanhe HIMAWARI 1 em tempo real com AllMySat

Download on the App Store